GFSSGP_700_spd_129.txt.gz
Wind_Speed
6 5 4 4 9 7 21 26 19 16 16 12 8 13 21 8 7 11 21 17 13 16 18 21 26 27 27 24 21 25 24 31 30 36 25 25 24 24 23 25 24 23 22 22 22 21 19 20 20
6 7 8 12 9 12 22 19 15 13 17 12 10 8 9 15 7 17 21 19 16 16 19 23 26 25 25 24 26 25 23 28 31 30 25 23 24 22 23 23 23 22 22 22 23 22 20 20 19
6 11 17 6 1 20 24 17 16 12 8 9 15 6 12 15 11 20 17 18 17 18 19 20 21 22 21 20 21 22 25 28 25 25 21 22 22 22 21 21 22 22 22 22 22 21 19 19 19
12 18 14 9 14 22 21 17 16 27 26 22 22 19 19 12 18 16 16 18 16 18 18 17 20 21 20 22 23 22 20 18 17 16 18 20 21 22 20 20 21 21 22 21 20 20 19 18 18
14 15 9 8 11 28 24 18 22 25 22 17 10 22 18 12 16 14 17 16 14 17 18 18 19 19 20 21 20 18 16 19 18 18 19 19 20 20 20 20 20 20 20 20 20 19 19 19 19
11 14 16 15 28 27 23 15 12 18 20 17 18 21 18 9 13 11 18 16 16 14 16 17 19 19 20 19 18 18 16 18 18 16 18 18 18 18 19 19 19 19 19 20 19 20 20 20 19
27 25 10 25 25 19 19 14 18 27 16 14 20 31 18 13 15 9 10 16 16 15 15 17 19 19 19 18 17 18 17 17 17 17 17 16 15 18 18 17 19 19 20 20 20 20 21 21 20
32 10 7 26 19 23 20 23 17 20 13 16 10 27 22 18 9 7 10 7 10 13 15 17 20 19 18 16 16 17 18 16 15 16 17 17 15 16 19 19 20 21 22 23 24 22 22 22 22
23 8 11 21 20 20 23 18 17 17 19 16 9 22 21 13 11 8 4 3 10 18 15 16 18 19 18 14 14 13 16 14 14 15 15 16 18 16 18 20 20 21 24 25 26 25 24 23 22
19 7 14 18 17 24 16 11 22 20 20 23 22 22 21 19 9 4 9 7 10 19 18 16 16 18 16 14 13 12 11 12 14 14 15 17 18 17 16 19 18 18 21 25 24 25 24 23 23
28 4 18 28 16 16 14 14 17 20 25 12 26 21 17 13 9 6 11 7 10 12 16 27 16 15 15 15 14 13 11 11 12 15 16 16 16 15 17 18 15 14 19 20 22 23 23 21 22
8 11 17 32 18 19 20 13 23 15 17 12 18 18 17 16 8 3 4 10 6 7 11 13 17 14 13 15 14 15 13 12 12 13 17 17 9 13 21 24 18 19 18 19 24 25 22 20 21
8 4 14 23 25 24 18 17 24 25 24 15 19 21 12 12 16 10 5 1 7 8 10 9 10 12 13 10 15 14 14 14 10 8 17 17 16 15 20 14 17 22 24 24 18 18 17 16 17
10 12 15 13 17 21 19 17 17 19 13 8 25 21 18 15 20 10 4 7 9 10 13 12 9 6 7 13 10 14 16 16 12 7 13 15 16 15 16 14 19 22 20 20 20 20 20 16 16
20 22 21 15 15 13 20 17 25 24 11 10 23 23 20 12 19 8 4 8 7 10 10 11 10 8 8 11 12 15 14 12 12 10 9 11 13 20 16 24 21 21 23 19 18 17 17 15 15
18 22 15 15 13 13 18 22 26 28 21 17 20 19 20 14 10 8 8 5 13 6 5 12 9 8 9 12 18 14 10 12 16 10 9 9 13 13 15 22 21 20 20 20 22 19 19 16 17
17 13 6 12 9 8 19 21 30 27 26 19 18 21 18 14 11 9 9 6 2 7 6 14 10 9 9 15 17 20 15 12 17 18 15 10 10 11 13 22 22 16 14 16 17 21 14 13 13
13 23 13 12 13 6 16 18 33 28 26 27 25 26 19 17 15 14 12 13 11 13 8 12 9 10 9 8 16 12 12 12 16 15 10 11 8 6 17 18 18 19 14 13 15 17 15 12 9
14 15 7 12 10 11 10 10 26 32 28 28 27 22 23 24 17 15 13 16 14 15 13 13 10 9 8 10 13 16 19 18 14 15 9 8 11 19 18 15 16 18 15 17 14 16 16 14 12
15 14 11 9 7 9 9 7 19 31 30 26 31 28 30 26 21 19 12 8 11 8 15 10 12 12 11 10 13 13 17 14 13 12 11 9 9 11 11 11 13 16 13 15 16 18 16 15 11
11 15 7 5 11 12 13 11 25 33 33 27 33 31 26 28 27 16 15 10 9 10 16 12 14 14 12 10 11 13 11 13 12 12 10 10 11 12 12 11 12 12 13 15 15 15 14 13 10
4 4 4 4 7 8 14 3 24 35 32 31 32 32 36 23 25 25 21 12 10 9 14 14 12 14 12 12 14 13 12 12 13 11 9 10 11 14 12 13 11 14 16 17 15 12 12 12 10
10 5 1 5 1 12 10 15 20 23 21 39 36 38 32 35 35 25 22 15 9 10 7 11 14 16 13 11 13 14 14 12 12 12 11 12 9 13 16 11 12 13 15 13 15 13 11 11 9
18 9 4 6 9 6 18 16 21 30 21 23 34 34 42 40 37 32 28 27 18 17 9 12 15 17 14 12 13 14 13 11 12 12 11 12 11 11 11 11 10 13 15 15 17 14 13 10 5
13 18 10 4 4 2 11 19 20 25 18 22 27 36 29 41 37 35 29 26 19 17 12 8 16 16 14 15 13 13 12 10 10 10 10 10 10 10 11 12 12 10 11 7 12 13 14 13 10
19 14 10 4 1 9 19 9 8 20 19 30 17 23 31 30 34 34 28 31 26 25 18 14 16 16 15 15 15 14 12 11 11 9 8 8 12 14 13 15 14 12 11 14 15 12 13 13 12
9 13 16 8 11 5 5 8 10 8 9 13 18 28 29 34 38 30 32 35 31 29 23 19 16 16 16 16 15 15 13 10 8 7 7 9 10 7 11 12 13 12 11 10 10 11 13 13 14
15 12 7 13 4 4 2 6 5 9 11 12 16 24 31 31 31 36 33 27 38 21 26 22 20 18 18 19 17 16 14 12 9 9 8 7 5 7 9 9 10 12 11 11 11 11 10 11 12
12 17 9 10 8 5 2 1 7 4 19 8 21 27 26 27 28 29 38 33 24 23 30 28 22 19 18 18 18 18 16 14 12 11 10 9 6 6 6 8 11 10 10 10 11 10 8 8 11
14 15 13 17 12 13 11 2 7 6 3 11 1 24 24 24 17 26 35 34 30 30 29 34 28 21 19 17 17 16 16 16 15 14 12 11 10 9 9 8 7 7 9 9 9 10 8 6 8

GFSSGP_700_spd_132.txt.gz
Wind_Speed
5 5 5 7 8 14 26 22 20 24 22 19 20 14 12 11 8 11 20 20 16 18 25 27 26 27 29 24 24 28 26 33 30 28 28 29 25 24 24 23 23 22 22 20 20 20 20 18 18
7 6 7 12 13 26 20 18 12 10 10 9 12 16 10 6 2 16 21 21 19 22 26 24 26 28 26 25 31 30 32 33 31 27 25 25 24 24 22 22 22 21 21 20 19 19 18 17 20
9 9 15 8 14 20 27 19 18 9 2 5 9 11 10 9 19 20 19 21 21 24 22 22 21 22 23 27 29 28 30 35 31 26 24 23 23 22 22 22 21 21 21 21 20 20 19 18 17
15 19 13 10 14 13 20 17 14 9 5 2 10 16 16 16 22 21 20 19 20 21 20 21 21 22 23 23 23 25 21 21 22 22 22 22 22 21 21 21 21 21 20 20 20 20 19 17 18
15 25 10 6 12 25 23 14 7 13 7 7 6 19 21 18 17 22 20 16 16 20 19 20 20 22 22 22 21 20 19 18 20 20 21 22 21 21 21 21 20 20 19 19 19 20 20 21 22
17 16 13 21 24 20 16 5 24 13 8 8 7 19 21 19 16 19 19 18 15 16 18 18 19 19 19 17 18 19 20 19 19 20 21 21 20 21 20 20 19 19 19 19 19 20 21 22 22
20 19 16 25 24 19 16 16 21 8 8 10 5 19 27 21 20 17 17 17 16 16 17 17 17 18 17 17 17 18 18 18 19 18 18 18 18 20 20 20 20 19 20 20 19 20 22 22 22
30 12 18 21 23 20 10 13 16 6 12 11 8 17 23 19 18 17 17 13 15 17 18 18 18 17 16 15 16 17 17 17 17 17 18 19 17 19 21 20 21 22 22 22 21 21 22 21 20
18 16 14 14 21 20 22 29 20 6 8 8 5 16 20 17 13 10 11 13 17 19 19 20 19 17 15 15 14 17 16 16 16 15 15 18 18 18 20 20 21 23 22 23 24 23 22 22 21
17 6 15 17 18 19 24 20 20 20 19 13 16 17 14 13 9 6 13 13 15 18 19 21 18 15 15 14 13 14 15 15 14 14 14 12 17 19 21 21 21 23 22 23 24 23 22 20 20
16 18 2 14 25 21 24 23 22 16 22 9 8 21 17 14 9 5 11 14 13 15 16 16 18 15 13 14 13 12 11 12 14 11 12 14 17 17 18 19 19 19 21 24 22 21 20 19 20
17 3 13 19 25 22 23 21 19 14 11 10 5 15 15 12 9 6 8 17 15 15 16 16 18 15 15 15 14 14 10 12 12 11 13 17 17 16 17 16 18 18 19 21 20 17 18 20 19
15 10 18 27 15 11 17 14 18 22 20 14 10 10 9 12 9 10 2 9 12 13 13 13 14 15 13 14 12 13 12 13 12 10 9 14 19 22 15 15 16 18 23 20 15 16 17 17 16
6 9 11 32 22 16 17 14 22 26 24 18 16 11 10 12 10 9 5 5 5 14 14 12 13 13 12 14 14 14 12 16 14 12 10 14 15 12 14 17 20 22 21 21 19 18 18 18 15
12 18 29 31 23 18 21 22 22 22 20 20 21 13 10 13 8 6 2 6 3 11 13 13 12 12 13 17 14 15 12 13 14 12 8 14 16 17 16 22 24 24 24 20 20 19 17 16 19
8 15 21 22 21 19 19 21 24 23 18 30 25 19 16 17 6 5 1 4 0 7 11 11 11 10 9 16 17 18 14 14 11 13 12 11 17 17 20 22 22 15 17 19 17 20 20 18 19
10 14 15 13 22 19 26 24 25 26 21 26 26 23 22 18 10 7 3 2 2 7 9 10 10 10 12 15 17 16 17 15 14 14 11 15 10 13 17 20 21 17 17 16 19 18 19 20 17
15 18 10 16 15 16 25 29 31 32 26 26 25 23 23 16 12 10 3 4 6 7 2 11 12 12 15 17 16 18 15 16 13 14 14 15 14 12 14 18 20 18 13 16 16 13 13 16 15
4 11 14 10 9 5 11 22 31 32 26 26 26 25 20 15 13 11 7 7 8 6 8 10 12 12 8 14 16 19 18 20 17 13 13 11 8 10 18 18 14 13 13 15 15 14 13 15 18
13 12 8 3 6 7 5 16 27 28 30 32 25 28 26 24 19 15 11 6 5 10 10 10 10 13 13 14 22 14 16 19 17 17 12 9 9 19 15 14 18 17 10 16 16 13 13 11 14
8 8 7 6 6 10 10 9 24 33 33 35 24 30 28 26 22 18 12 7 5 7 10 11 12 13 12 13 14 15 15 17 15 13 15 15 13 14 15 15 16 18 14 15 15 14 11 11 8
8 5 4 6 15 6 12 5 10 30 31 32 23 32 31 30 25 23 16 13 5 5 7 11 15 13 11 10 11 11 13 12 15 12 13 14 16 16 17 15 15 15 15 17 13 13 12 10 8
9 4 5 6 8 8 12 3 8 25 37 42 35 36 34 33 29 25 20 13 8 6 6 10 11 13 12 11 12 12 16 17 14 12 9 10 14 14 10 13 10 15 15 16 13 13 12 9 8
18 6 3 5 6 4 17 5 5 25 19 40 36 40 37 34 29 27 23 16 17 12 9 7 11 11 13 12 13 14 12 10 12 10 10 13 14 17 14 12 12 13 15 15 14 14 11 8 9
10 7 2 1 1 2 10 4 6 10 24 27 41 39 37 36 35 32 26 22 22 15 12 8 12 11 14 12 12 13 13 12 12 11 11 10 11 12 14 15 14 14 14 15 13 16 14 11 9
12 12 9 5 4 4 10 7 5 15 11 18 23 38 39 40 36 31 28 28 22 18 18 13 12 13 14 14 13 12 11 9 13 15 12 11 11 13 16 16 14 15 14 16 12 15 13 13 13
15 20 14 10 8 1 8 5 4 3 4 7 16 16 34 39 37 43 39 31 26 24 19 14 16 15 14 12 13 13 13 10 9 10 11 12 12 13 13 15 15 15 14 15 15 15 13 13 13
16 16 5 9 3 4 6 14 6 11 12 17 10 14 21 29 37 38 41 33 29 21 21 17 18 16 14 15 13 13 14 12 10 10 9 9 11 8 12 13 13 13 13 14 14 14 14 13 12
18 13 5 5 5 5 3 4 10 10 8 4 11 18 19 17 30 34 40 30 32 31 28 18 21 19 16 17 17 16 15 14 11 11 10 8 6 7 10 12 12 13 12 12 15 14 13 12 12
7 1 5 9 10 6 3 5 16 15 15 18 13 9 20 15 16 22 31 36 31 27 29 24 24 21 20 18 20 18 18 18 15 13 12 11 12 9 9 10 11 12 13 12 14 13 12 11 9

GFSSGP_700_spd_135.txt.gz
Wind_Speed
5 6 8 8 8 16 16 13 16 17 16 9 10 6 5 10 5 7 17 16 18 20 19 18 17 19 16 13 14 17 27 29 28 30 28 25 23 23 21 20 19 19 19 19 18 18 18 19 18
9 7 9 9 19 21 15 20 19 13 11 11 10 7 5 2 1 13 19 22 24 22 26 25 23 22 20 22 21 23 30 31 30 30 25 23 22 20 19 18 18 17 18 17 18 18 19 17 16
11 10 11 14 17 23 18 17 15 13 10 7 14 13 5 3 16 17 21 24 24 22 25 25 24 25 25 25 23 29 27 24 23 24 22 21 19 19 18 17 17 17 17 17 17 17 17 17 16
12 16 9 17 19 21 18 14 8 6 9 4 9 13 13 15 12 17 21 24 21 20 21 22 24 26 24 31 30 26 26 23 22 21 21 20 19 18 18 17 17 17 17 18 18 18 18 17 16
14 11 7 11 19 22 20 12 5 3 1 6 8 15 16 18 16 17 20 21 16 18 21 22 24 24 22 19 19 21 26 22 20 20 19 18 19 18 18 18 17 18 18 18 18 18 19 20 17
12 8 11 21 31 22 18 4 2 2 5 7 12 21 24 17 16 18 19 19 17 16 19 21 22 19 19 18 17 19 20 19 19 19 19 18 18 19 18 18 18 17 17 18 20 21 21 19 18
14 12 18 24 27 20 11 9 2 8 10 10 11 18 26 20 15 17 18 18 17 15 16 18 18 17 17 18 18 16 21 17 19 18 18 18 18 18 17 18 18 18 18 19 20 21 21 20 19
17 13 21 19 23 17 13 9 5 4 9 13 13 16 25 22 17 19 18 17 17 17 15 15 16 15 16 15 17 16 16 17 17 16 16 17 17 17 18 18 19 19 19 20 21 21 21 19 19
21 16 17 18 16 16 14 14 14 3 4 9 7 15 19 18 16 13 13 15 16 18 17 15 15 15 14 15 15 16 16 16 14 13 15 15 17 18 19 18 19 20 22 22 22 21 20 19 20
13 21 18 22 20 18 20 17 20 12 10 13 21 20 19 15 12 7 11 13 15 16 17 15 14 14 13 11 13 14 12 13 14 15 14 15 16 16 17 17 18 21 23 22 20 20 20 20 21
9 9 13 17 21 19 21 21 18 15 8 8 8 19 14 13 13 9 15 15 13 14 16 15 13 12 13 13 13 11 9 13 12 15 14 16 17 17 16 18 18 20 23 22 20 20 20 20 20
10 8 22 14 16 18 23 25 21 15 6 11 10 10 12 14 12 12 10 15 14 14 16 15 14 11 12 13 11 10 10 12 13 13 13 16 17 15 17 17 18 19 19 18 17 19 19 17 20
7 15 16 19 26 19 19 23 25 16 11 14 12 14 12 15 17 14 11 10 13 11 12 15 14 12 11 12 9 8 10 12 13 13 11 14 14 16 12 18 18 19 18 15 14 16 16 18 19
4 14 16 22 26 20 17 16 29 18 19 14 12 12 13 11 15 14 10 7 10 13 11 11 13 12 12 13 10 9 10 12 12 11 15 17 15 14 16 17 17 17 14 15 16 17 17 20 21
8 15 19 28 19 13 18 16 24 22 22 18 15 10 13 10 12 11 8 8 8 10 10 8 10 12 10 14 12 11 11 11 13 11 14 10 10 12 13 17 20 16 16 17 17 17 17 19 20
3 10 15 33 25 19 20 25 28 24 23 22 18 13 12 8 4 6 7 8 7 8 9 11 11 10 12 14 13 16 15 10 12 14 12 12 10 13 17 22 21 18 17 17 17 17 19 20 16
6 6 15 10 31 21 20 25 32 23 23 26 21 15 13 12 10 7 7 7 6 5 9 10 10 10 12 15 14 17 18 13 13 14 13 13 15 19 21 20 16 15 16 17 16 19 19 17 13
8 9 6 19 9 16 25 21 37 23 32 31 23 20 18 15 8 6 5 6 3 7 8 11 9 8 11 13 16 17 17 16 15 13 14 14 13 18 18 16 16 14 14 16 16 16 17 13 11
2 4 14 15 14 8 24 26 28 29 30 32 30 26 21 17 11 10 5 3 2 5 6 8 8 8 9 14 16 18 15 17 16 15 13 11 10 13 17 16 15 13 11 12 14 15 10 11 8
8 12 12 7 5 7 6 16 25 34 39 34 33 29 24 23 16 11 8 4 4 4 3 7 9 10 8 11 17 14 12 15 16 13 12 12 12 12 16 15 13 12 12 13 13 12 12 8 6
6 7 8 7 10 9 3 6 11 25 36 33 31 29 27 26 18 13 9 6 4 4 2 7 8 11 8 7 10 14 15 17 14 12 9 9 10 16 14 14 14 13 9 13 13 10 11 9 4
6 3 4 6 8 4 15 10 23 24 35 24 30 30 27 28 22 16 10 7 5 3 9 8 10 9 8 8 7 11 12 11 11 12 14 11 10 14 13 12 13 16 12 13 12 13 10 10 8
2 6 2 1 7 5 12 4 9 27 38 37 30 35 29 31 24 19 13 10 6 7 7 9 12 11 11 10 10 11 15 15 15 13 11 11 14 15 16 15 14 15 15 15 13 11 11 10 10
12 5 9 5 4 3 7 10 5 27 30 39 36 37 34 33 29 25 18 12 14 12 11 11 9 9 12 11 12 11 13 14 13 11 10 11 14 15 16 17 14 15 17 16 16 12 10 11 9
24 16 5 3 2 4 8 8 6 6 11 17 36 38 32 33 33 26 24 18 16 15 13 11 12 10 11 11 12 13 13 11 10 10 11 11 13 16 15 15 15 14 15 16 16 15 16 12 9
21 12 10 1 3 2 8 7 4 6 8 11 20 31 35 33 31 29 26 23 20 16 14 12 11 13 12 12 11 13 15 12 10 12 11 11 13 16 16 16 16 16 16 15 18 17 18 16 17
19 9 17 4 13 2 4 5 7 3 6 9 16 18 31 35 34 34 30 29 19 18 18 15 11 12 14 13 14 13 14 13 12 12 12 11 12 14 14 15 14 17 17 16 18 16 17 17 16
20 18 15 12 3 3 3 3 4 7 3 10 14 9 10 19 34 34 25 30 26 23 20 16 15 13 12 14 13 13 13 14 13 14 13 11 11 11 12 15 16 16 17 18 18 19 17 17 15
17 21 10 19 11 5 3 6 9 8 10 7 9 7 5 17 36 32 32 21 26 27 25 21 19 17 14 14 15 14 14 14 14 13 14 11 11 11 10 13 15 16 16 17 17 18 17 17 16
9 10 15 6 5 4 2 5 16 14 14 9 8 4 13 17 21 37 38 27 26 27 25 21 20 21 16 15 16 17 17 16 16 15 15 13 14 11 12 13 14 15 15 15 17 18 17 16 15

GFSSGP_700_spd_138.txt.gz
Wind_Speed
3 7 11 11 8 10 12 7 12 15 14 8 7 7 6 6 9 3 9 12 13 15 13 11 11 11 9 7 9 21 21 19 15 20 19 19 20 19 19 18 17 18 18 19 19 19 18 17 17
3 9 9 10 12 15 11 12 11 9 9 6 6 7 4 3 7 10 16 19 20 21 17 15 15 13 10 10 8 15 20 17 21 27 24 22 20 19 18 18 17 18 19 19 19 18 15 16 17
8 11 11 12 16 17 15 14 10 10 9 6 6 6 1 9 15 13 19 21 24 21 19 21 21 17 16 15 28 33 31 31 31 29 23 20 18 18 17 17 17 18 19 19 18 18 18 18 17
8 11 12 12 17 16 18 14 9 10 9 6 7 6 12 18 14 16 20 20 21 22 23 23 24 26 22 22 27 26 26 26 22 20 20 18 17 17 17 18 18 19 18 19 18 17 17 18 18
11 11 13 20 17 16 13 8 10 8 4 5 8 9 11 20 19 18 19 18 18 20 23 22 22 24 25 21 21 23 22 21 20 19 17 17 16 16 16 17 18 18 18 18 17 18 20 19 17
12 10 19 22 17 18 12 9 7 6 5 5 9 12 18 21 18 20 18 18 19 19 21 21 18 16 17 19 21 20 22 19 19 17 17 17 16 17 16 17 17 17 17 17 20 21 20 18 17
14 12 18 22 22 17 10 7 6 10 8 9 12 18 22 24 20 19 19 19 19 19 18 17 17 16 17 20 16 16 21 17 15 17 16 16 16 16 16 16 17 17 17 19 21 20 18 18 16
15 13 24 24 22 16 9 13 6 7 10 12 8 10 18 20 20 19 19 19 20 18 17 15 14 18 18 17 21 19 20 18 13 14 16 15 15 15 15 16 16 18 19 21 21 19 18 16 16
15 18 20 24 19 15 14 17 12 3 5 15 11 15 12 13 20 17 18 20 19 18 17 17 14 16 17 17 16 16 18 15 12 13 14 15 14 14 14 14 17 19 21 21 21 18 17 16 17
13 19 18 22 18 17 15 13 10 4 7 10 16 16 16 14 15 12 12 16 17 16 14 15 16 17 15 15 14 14 16 15 14 13 14 14 14 14 14 15 18 19 21 20 20 18 17 16 17
12 17 15 18 16 16 14 13 9 5 9 6 14 14 14 13 12 14 15 15 16 16 14 13 14 13 13 13 13 13 13 14 14 13 13 14 14 15 16 18 20 20 20 20 19 18 16 18 19
5 16 14 17 14 12 16 18 15 9 9 7 7 9 14 13 15 15 16 15 15 15 14 13 11 11 12 13 12 12 12 13 14 14 14 14 15 15 16 17 17 18 17 17 17 16 15 18 22
8 10 16 7 18 17 20 23 17 12 10 14 14 9 11 13 16 17 16 15 14 14 14 12 10 10 9 10 10 10 11 13 13 13 14 14 13 14 13 15 15 16 16 14 15 15 16 17 21
8 7 11 12 16 20 19 21 24 15 15 14 14 9 12 14 15 14 12 11 12 12 11 12 11 9 8 9 11 10 12 13 13 10 12 10 12 8 15 14 17 15 14 13 13 13 16 18 17
4 10 14 20 24 23 19 22 26 18 21 15 15 14 17 14 11 11 10 13 11 12 11 9 11 8 9 9 10 10 11 11 12 13 15 12 10 12 14 14 15 14 14 13 12 12 13 16 13
3 2 3 12 21 22 21 22 20 22 25 18 15 17 19 13 10 8 9 11 10 9 11 9 9 10 9 11 12 12 11 10 14 16 13 10 9 10 15 18 15 15 15 14 13 14 13 13 11
4 1 5 12 16 11 15 16 19 23 28 20 18 19 17 17 11 8 8 10 10 8 9 9 8 9 11 13 13 15 13 11 15 14 14 11 9 14 17 16 15 15 15 14 13 13 13 12 9
2 3 4 7 13 12 19 12 24 29 30 23 20 17 17 16 9 10 6 8 8 9 9 10 9 9 10 14 14 16 16 13 14 12 13 12 11 16 17 13 15 13 14 14 14 14 12 11 7
5 1 2 4 1 16 18 19 27 34 28 30 25 21 17 14 12 11 6 5 6 9 5 6 8 7 9 13 16 16 14 14 13 12 13 13 13 17 16 10 13 10 13 11 11 11 10 8 6
4 4 10 5 2 9 1 13 34 34 28 30 29 22 17 14 16 13 8 4 7 8 6 7 8 8 10 14 16 17 14 14 14 11 11 11 16 17 15 14 12 11 10 10 11 10 9 8 5
6 9 7 10 7 6 1 8 8 37 33 30 29 25 20 17 16 13 9 6 9 8 7 8 8 8 9 13 14 17 17 17 15 13 10 10 11 14 17 17 13 12 10 11 10 8 7 6 3
7 5 12 9 9 6 11 4 16 19 32 34 35 29 24 23 19 15 9 7 8 7 8 11 8 8 7 9 9 14 12 14 13 13 11 8 7 15 15 18 14 15 11 9 10 9 8 8 7
9 11 6 3 9 6 12 3 12 26 30 37 37 33 29 24 21 19 11 8 6 6 8 10 10 9 8 7 8 11 11 12 16 13 11 10 10 13 15 14 14 16 15 11 11 10 10 8 7
7 5 4 3 3 3 4 13 6 16 26 40 35 32 29 25 23 22 16 13 10 9 9 12 12 9 9 9 9 10 11 14 14 12 11 13 13 13 12 14 14 14 15 15 15 12 10 8 8
19 15 2 3 2 4 2 8 12 3 6 18 30 31 31 29 26 25 21 17 10 11 9 11 11 11 11 11 10 12 12 12 10 10 12 12 12 14 16 16 15 13 15 17 16 15 12 11 9
22 19 6 4 3 4 2 7 1 5 7 13 16 29 30 26 25 27 23 20 14 12 11 10 8 11 13 11 10 12 13 13 12 11 11 11 11 12 16 15 16 17 14 16 17 16 15 14 14
25 28 10 9 3 4 4 7 5 10 14 20 20 11 18 33 28 29 27 23 18 16 13 9 9 11 13 13 11 10 12 13 11 12 14 10 10 13 14 16 18 18 18 17 17 16 17 16 16
24 23 9 8 3 4 6 7 2 4 2 9 19 22 18 17 20 24 24 24 20 18 17 12 12 9 12 13 12 12 11 11 12 13 12 12 12 13 15 17 17 17 17 17 17 16 18 16 16
19 17 8 11 9 4 0 4 5 6 2 5 10 17 13 16 23 24 15 18 23 24 21 13 13 15 12 12 12 11 12 13 14 12 12 12 12 12 11 12 14 14 15 17 17 18 18 17 16
15 25 16 12 12 9 3 3 7 8 2 7 10 8 3 12 17 27 34 29 22 20 24 20 15 20 16 12 12 12 13 14 15 14 14 14 13 13 13 13 12 15 16 16 16 17 17 17 16

GFSSGP_700_spd_141.txt.gz
Wind_Speed
6 8 9 11 7 9 11 5 6 13 11 10 9 9 8 8 7 6 7 9 11 10 8 6 6 7 5 7 15 18 14 9 9 18 17 19 19 18 18 18 20 20 19 20 19 19 17 17 16
6 8 8 7 10 10 6 7 7 12 7 10 7 9 6 6 12 13 12 13 15 13 10 10 8 6 5 6 9 17 16 13 9 23 22 21 19 18 18 19 19 19 19 19 18 17 17 16 17
8 9 10 9 12 9 9 9 8 9 8 6 3 5 5 10 13 17 17 19 18 15 14 16 16 13 7 8 10 12 11 8 15 27 21 19 19 18 18 19 19 19 21 19 17 17 16 16 17
10 9 9 9 13 12 12 8 5 5 9 8 4 3 13 16 16 19 19 19 21 23 23 22 21 19 24 29 27 27 28 30 29 25 19 18 18 18 19 19 19 19 18 17 17 17 16 17 16
11 12 10 18 13 15 11 7 5 3 4 9 6 10 14 18 20 19 19 20 22 24 23 21 20 20 20 25 27 29 29 29 27 21 18 17 18 18 19 19 19 19 19 18 17 16 17 15 15
12 12 16 18 17 16 10 9 7 2 4 6 10 10 16 22 22 19 19 20 21 20 19 16 14 15 20 19 28 28 27 24 18 19 18 17 18 18 19 18 18 18 18 18 17 17 15 15 14
12 12 20 19 19 15 13 11 7 5 3 5 8 16 21 23 23 19 20 22 22 19 18 16 15 15 13 17 25 23 19 19 18 18 17 17 17 17 17 16 17 18 19 19 17 16 15 14 14
11 16 20 19 21 14 11 10 5 6 6 8 9 14 18 22 23 21 20 21 20 18 17 16 17 17 21 24 20 21 20 17 15 16 16 15 15 16 16 16 17 18 18 17 16 15 15 14 14
13 14 22 22 17 13 12 12 6 3 4 9 11 13 15 18 21 21 19 19 19 18 17 17 16 17 18 19 24 26 20 15 13 13 14 14 14 15 15 16 17 18 18 16 15 15 15 13 13
13 18 20 22 15 15 15 10 4 4 5 7 13 16 13 19 18 17 17 17 17 17 15 16 17 16 15 16 15 13 10 13 12 13 13 13 13 13 14 16 18 18 17 16 15 14 14 14 13
11 18 19 18 13 11 12 10 5 7 4 6 7 10 13 19 19 17 16 17 16 17 16 16 15 16 14 15 14 12 10 11 12 12 12 12 13 13 14 16 18 17 16 15 13 12 13 13 13
11 16 16 16 12 11 13 11 8 3 7 13 11 10 12 15 16 17 18 18 16 16 16 14 12 14 15 14 14 13 11 12 12 12 12 12 12 13 14 15 17 16 14 14 12 11 12 14 15
6 13 8 11 14 12 13 14 11 9 9 11 11 13 11 15 18 18 18 18 19 16 15 13 11 10 10 11 12 12 12 11 11 11 11 11 12 14 14 15 15 14 12 12 11 12 13 15 17
12 6 11 16 10 14 16 19 17 10 9 14 11 12 16 19 16 14 14 16 17 17 15 13 11 9 9 8 9 10 12 12 11 10 11 9 12 12 13 15 15 12 11 11 10 12 14 15 15
8 6 10 13 12 18 16 19 19 16 13 14 13 15 19 17 16 15 14 14 15 14 14 13 12 10 10 9 9 10 11 11 9 10 12 9 10 14 14 14 12 11 11 10 8 9 11 14 10
2 2 3 6 16 20 17 11 20 20 19 16 17 16 17 16 14 14 15 16 15 14 13 12 13 10 11 11 10 11 10 11 9 13 11 10 12 13 14 13 11 11 11 9 7 8 10 9 9
3 3 3 3 11 11 21 14 13 26 23 19 19 21 17 16 13 13 14 15 14 13 12 12 11 11 11 12 13 11 8 8 12 12 9 10 9 14 15 13 12 11 10 9 8 9 11 10 8
1 2 3 2 3 21 13 17 11 14 28 20 21 21 19 14 13 12 12 13 13 14 13 12 11 10 12 14 14 14 10 6 10 10 10 10 11 15 15 12 11 11 10 9 9 9 9 9 7
6 4 4 6 8 6 7 12 18 14 27 26 24 22 21 16 15 13 12 9 11 12 12 10 8 9 9 14 14 14 11 9 9 8 10 12 12 13 12 11 11 11 10 8 8 7 7 4 1
3 0 5 1 2 6 6 10 21 20 29 35 26 25 21 21 16 14 11 9 11 10 9 10 10 9 9 14 14 15 13 12 11 9 10 9 11 14 13 7 11 9 11 9 9 6 7 5 2
6 3 5 2 5 1 6 3 6 14 23 31 31 27 24 19 15 14 11 8 12 9 9 10 10 10 11 14 16 16 15 15 12 10 9 8 10 14 13 13 11 11 9 8 9 8 8 6 3
8 6 5 6 6 5 8 1 7 8 34 29 31 32 27 24 18 15 13 9 11 11 11 12 10 9 10 14 13 16 12 11 12 12 10 9 11 14 15 17 15 11 9 7 8 8 8 6 7
10 7 3 1 7 12 9 4 5 2 29 36 28 32 31 25 21 19 14 10 11 11 11 12 12 12 11 11 13 16 14 15 15 15 12 10 8 8 14 15 14 14 13 11 8 11 10 7 6
10 5 6 3 5 5 5 12 8 16 14 32 26 30 31 29 26 20 18 16 12 10 12 15 14 14 12 11 10 11 13 14 14 15 12 11 10 12 12 14 15 14 12 13 12 11 10 8 7
15 8 2 1 3 3 5 7 10 10 14 25 29 22 31 29 27 24 23 20 13 9 9 13 14 14 14 12 11 12 11 11 11 12 12 11 12 12 14 15 15 13 13 13 14 13 13 10 8
20 13 6 4 3 2 6 6 3 5 2 11 24 32 30 31 27 22 23 19 15 11 8 11 10 11 12 13 12 12 12 12 12 10 9 9 12 14 14 15 15 15 15 11 14 16 15 15 13
21 18 10 5 1 3 4 4 7 8 6 8 16 25 28 25 26 23 23 21 19 15 10 9 8 7 11 12 12 13 14 14 14 13 12 11 10 11 11 13 15 14 13 14 13 15 16 17 16
11 20 9 5 4 2 2 3 2 3 7 8 14 13 18 25 29 25 22 25 23 18 14 12 9 6 9 12 12 12 14 16 16 15 14 13 12 12 11 12 13 15 17 16 15 14 16 15 16
16 18 10 8 5 2 2 0 3 2 5 5 15 25 15 8 11 19 26 26 30 24 17 16 12 10 7 10 13 13 14 14 14 14 14 13 13 13 12 12 13 16 18 16 15 15 16 16 15
20 17 16 8 7 2 4 4 4 5 9 11 15 19 18 21 21 19 17 15 26 25 23 19 16 12 12 9 11 12 12 13 14 13 13 14 14 13 12 13 12 10 15 15 15 15 17 16 17

GFSSGP_700_spd_144.txt.gz
Wind_Speed
10 9 11 8 5 6 9 6 6 9 7 5 7 7 6 6 5 6 8 7 6 7 5 5 4 7 9 14 10 10 7 5 7 12 13 18 19 19 20 20 20 20 19 18 17 15 15 16 14
9 9 8 5 3 9 9 5 7 8 7 7 8 9 8 12 14 14 10 11 9 7 5 4 5 5 7 10 14 13 11 7 2 15 19 19 20 20 19 18 19 19 18 17 17 16 15 14 14
8 8 8 5 3 9 10 7 7 7 5 5 3 5 7 13 15 18 16 14 11 13 13 9 6 3 4 7 9 15 11 7 4 25 22 20 20 19 18 18 18 16 16 16 16 16 15 15 15
9 8 7 4 7 7 8 7 8 9 5 3 1 2 12 18 17 18 18 16 17 17 19 17 15 13 11 13 14 14 11 9 18 23 22 20 19 18 18 19 18 17 16 17 17 16 15 15 14
10 10 4 8 7 10 9 8 7 5 3 4 2 8 14 19 19 19 20 21 20 20 20 21 20 20 22 22 22 23 23 27 30 27 22 20 19 19 18 17 16 14 16 17 18 16 15 14 13
8 9 9 8 9 10 8 8 7 3 2 3 7 10 17 21 19 20 21 19 16 16 16 18 21 18 19 30 30 30 30 31 29 24 21 21 19 19 17 16 15 15 16 18 17 15 14 13 13
8 8 9 10 13 9 8 7 5 4 7 7 10 14 19 23 20 21 21 18 15 15 13 15 14 18 20 28 31 31 32 31 24 20 20 19 18 17 16 15 15 16 17 17 15 14 12 13 13
11 14 10 11 13 9 9 6 7 7 6 7 10 10 21 22 21 21 22 19 15 16 15 15 15 27 23 30 27 24 24 21 18 18 18 17 16 15 15 15 16 17 17 15 14 13 12 13 14
12 13 12 11 11 10 11 6 5 5 7 9 9 13 17 21 21 21 21 19 16 15 16 15 13 19 23 30 25 20 18 16 15 16 16 15 16 15 14 15 17 17 16 15 13 12 12 13 14
7 14 13 17 9 11 12 7 7 8 6 6 13 12 17 19 20 19 18 18 17 15 16 15 15 14 20 19 21 14 15 13 13 14 15 15 15 15 15 17 17 16 15 14 12 11 13 13 16
9 16 14 17 13 10 12 7 6 8 3 7 10 9 16 18 19 18 17 16 16 16 15 15 15 14 14 12 10 8 10 11 12 13 14 14 14 15 16 17 16 15 14 13 11 11 13 15 19
10 18 16 16 11 11 12 8 8 4 7 12 10 11 18 19 19 19 17 16 15 16 16 14 14 14 13 12 11 10 10 11 12 13 13 13 14 15 16 17 15 14 12 11 11 12 13 17 18
8 12 16 15 10 10 9 11 9 6 11 10 11 15 16 19 17 19 18 17 16 16 15 14 13 14 12 11 11 10 10 10 12 12 12 13 14 15 16 16 14 13 11 10 11 13 14 17 17
8 12 11 12 16 14 8 14 12 9 10 11 12 12 14 17 18 18 18 18 17 16 14 14 13 12 10 10 10 10 10 10 11 12 12 12 13 13 15 14 13 12 11 10 10 12 13 16 15
8 10 8 10 16 21 17 15 16 9 8 12 12 14 15 16 17 16 16 17 18 16 14 13 12 12 11 9 10 11 10 10 10 13 10 14 11 14 15 14 12 11 10 10 9 11 12 11 10
4 7 7 6 10 13 16 15 21 15 13 14 14 17 16 17 18 18 17 17 18 17 16 13 13 12 12 11 11 11 9 8 10 12 10 11 11 14 15 13 11 12 10 9 9 10 10 8 7
2 3 4 3 4 4 19 13 22 20 21 16 17 18 15 14 15 18 19 18 16 16 15 15 14 12 12 11 9 8 7 8 10 10 10 12 13 14 14 13 12 11 9 8 9 10 10 7 5
1 2 1 1 2 2 6 5 15 25 26 21 19 19 17 14 14 16 19 19 17 15 15 15 14 13 11 12 11 10 8 6 10 9 10 10 13 14 14 12 11 10 7 6 8 9 9 6 3
3 2 4 3 3 2 2 11 11 15 28 27 23 22 18 15 13 14 17 16 16 15 14 13 13 13 12 13 13 12 8 7 8 9 11 11 13 14 13 10 9 9 7 5 5 6 6 3 1
4 3 1 2 2 4 1 6 14 14 26 28 26 23 21 18 16 16 14 13 13 13 13 13 12 12 13 15 15 15 11 8 7 7 11 11 13 14 12 8 9 7 7 6 5 4 4 3 3
8 6 2 3 5 3 2 2 6 15 20 31 32 27 22 22 18 16 14 13 15 12 11 12 13 13 15 17 15 15 13 11 9 8 11 9 12 14 14 10 7 9 9 9 8 6 6 5 4
11 6 4 4 4 5 3 2 8 7 14 31 36 34 24 21 20 17 15 11 14 12 11 12 12 11 12 15 17 16 13 11 12 11 11 9 9 12 14 13 10 11 10 8 8 9 8 7 7
7 5 4 5 8 6 8 4 7 1 15 38 39 38 30 25 22 19 17 13 14 14 12 13 12 11 10 14 15 17 15 13 13 14 11 9 10 11 16 15 15 14 12 10 7 9 9 8 7
11 8 8 8 9 11 2 8 4 10 4 31 27 33 34 26 24 21 18 17 16 14 14 15 13 13 11 13 15 17 17 13 14 13 12 11 9 8 11 15 14 13 12 13 11 8 8 8 8
17 15 14 10 6 8 3 6 4 7 10 17 28 35 35 29 26 24 23 22 19 14 11 14 15 14 14 13 14 16 15 13 13 13 13 10 9 10 11 11 13 14 13 11 13 12 11 10 9
21 20 16 6 6 3 5 4 2 3 4 15 22 30 31 35 28 25 24 21 17 13 11 12 15 16 15 15 14 14 14 16 15 15 13 11 10 10 11 13 13 12 12 12 11 13 13 13 12
17 18 12 13 7 9 5 3 2 1 1 2 16 28 36 37 34 28 25 24 19 15 10 11 13 13 12 15 15 15 15 14 16 14 13 12 11 9 9 11 12 11 12 12 11 10 12 14 13
10 13 12 13 4 8 7 2 1 3 4 7 8 26 35 29 34 29 27 26 23 20 15 13 13 9 12 14 14 14 15 16 16 14 13 12 12 11 10 11 12 13 13 13 12 12 12 12 13
15 14 16 5 10 4 2 4 5 7 5 8 12 12 15 25 34 30 28 27 27 24 20 17 15 12 10 12 15 14 13 15 16 16 15 14 13 12 11 9 10 12 14 14 12 13 13 12 14
14 15 17 12 2 1 3 6 10 14 2 3 24 18 11 18 19 26 30 29 30 26 26 21 18 13 12 10 12 14 14 15 15 15 15 15 14 13 12 11 11 12 11 13 13 13 13 13 13

GFSSGP_700_spd_147.txt.gz
Wind_Speed
10 9 10 5 1 4 10 10 10 9 9 8 9 11 13 8 2 10 10 4 5 4 5 7 7 9 14 12 11 8 8 8 6 13 17 17 19 21 21 21 19 19 18 17 16 16 16 14 14
11 10 6 2 6 10 12 8 11 9 9 9 7 15 12 20 15 16 12 8 5 4 3 5 6 8 11 12 13 10 8 6 4 11 16 17 20 20 20 19 17 17 17 17 17 16 15 15 14
7 8 5 6 7 17 12 10 8 7 8 6 6 9 7 11 3 15 11 9 7 8 5 3 4 7 9 12 16 14 11 7 11 13 18 17 18 18 18 18 17 17 16 15 16 16 15 14 13
9 5 4 0 7 12 11 10 8 9 3 6 6 9 13 11 11 16 17 11 14 16 11 9 6 8 11 12 12 18 12 8 10 22 21 18 18 17 17 17 16 16 14 15 16 16 15 13 13
7 8 6 4 11 11 9 8 7 8 6 7 7 13 14 17 17 17 17 13 17 18 19 17 15 13 15 15 16 13 12 12 23 24 20 19 17 16 16 17 16 15 15 16 16 16 14 13 13
6 9 3 7 11 8 8 7 5 5 7 8 13 16 17 16 17 17 15 14 11 16 18 18 18 16 18 18 18 18 17 20 24 23 21 19 17 16 15 15 15 16 16 16 16 16 14 14 15
8 7 7 10 10 10 7 7 6 7 9 12 9 15 17 16 17 18 15 7 3 15 18 17 19 22 23 25 25 27 29 31 28 22 20 18 16 16 16 15 16 16 15 16 16 15 14 16 16
7 9 5 11 8 12 7 10 9 9 12 14 12 11 19 19 19 17 14 7 9 16 19 21 20 27 25 25 29 32 33 31 23 20 19 18 16 16 15 17 17 16 15 15 15 14 16 16 18
8 12 8 8 12 14 10 9 8 11 13 10 6 14 18 21 18 17 15 13 11 10 19 18 26 25 26 26 28 31 32 27 21 18 17 17 15 16 15 19 16 14 14 15 14 15 15 18 20
12 13 7 5 8 14 9 8 13 10 8 10 17 19 19 20 19 17 11 11 11 15 11 17 16 27 31 28 26 25 27 19 17 17 14 15 17 17 16 17 15 14 14 13 15 14 13 19 20
7 16 5 3 13 8 9 7 8 7 9 13 17 20 20 20 17 16 13 8 7 12 18 11 9 6 24 19 14 18 19 14 14 17 14 16 15 16 17 15 14 13 10 14 12 10 13 18 15
5 15 13 6 10 9 8 8 9 2 13 13 16 19 20 19 17 14 14 11 10 10 13 7 12 4 10 10 11 11 12 13 12 13 16 15 10 21 18 12 13 13 9 13 9 14 20 18 18
9 15 19 10 12 18 9 8 8 9 13 14 17 19 19 18 17 16 14 13 14 14 13 12 10 11 12 13 11 10 10 12 11 11 9 21 9 16 13 14 16 13 7 8 14 16 19 17 15
4 7 15 17 12 6 11 12 7 12 12 15 15 16 16 16 16 17 16 15 13 12 11 12 10 10 11 12 10 13 13 14 10 11 13 17 13 14 19 16 9 9 9 9 11 17 15 12 10
5 6 9 14 17 13 15 12 10 13 11 13 13 15 15 16 15 16 16 16 15 13 11 10 11 9 9 10 10 10 12 7 9 11 11 10 13 18 15 14 11 10 12 12 15 15 12 7 7
7 9 10 7 12 18 17 15 21 20 17 13 15 15 15 16 16 15 16 16 17 15 14 12 10 9 9 8 11 7 13 10 12 8 10 10 12 13 13 7 10 9 12 7 11 10 7 4 4
12 6 8 3 6 7 13 13 23 19 23 17 15 15 14 16 15 15 16 16 18 18 16 14 12 11 10 9 10 11 9 8 10 11 7 10 14 13 14 9 15 14 9 14 5 6 9 3 4
5 8 9 7 3 6 3 17 20 20 23 20 15 19 17 17 15 15 14 16 16 16 16 17 14 11 11 11 9 7 9 4 10 9 11 11 13 13 10 8 11 5 18 11 9 9 6 2 2
4 2 5 9 2 7 3 9 16 22 20 28 26 23 16 16 15 15 16 15 13 15 14 14 17 14 13 12 11 8 7 7 7 8 7 8 13 14 12 7 8 4 6 10 8 7 2 1 1
9 6 5 1 4 5 7 7 9 13 25 29 30 26 19 15 18 16 17 17 16 15 15 13 13 14 13 11 13 9 9 10 5 7 9 9 12 14 12 11 9 10 6 4 5 5 5 7 3
12 9 2 2 5 4 5 7 11 15 26 28 34 24 24 25 17 17 18 16 16 17 14 13 13 14 14 17 17 14 12 11 8 8 10 10 12 14 11 10 9 7 4 6 6 5 3 4 3
15 14 7 5 5 5 8 2 11 12 19 29 36 31 23 28 22 19 18 18 16 15 14 14 15 14 14 16 16 15 12 7 8 8 9 8 10 13 13 10 7 9 8 5 6 6 5 4 5
10 7 8 7 11 12 11 6 4 17 21 33 31 35 33 27 24 26 17 17 17 16 13 13 14 13 13 15 15 16 12 9 10 9 10 11 9 10 13 13 11 8 9 7 6 6 7 7 7
14 11 11 13 16 18 5 9 6 13 15 17 38 41 36 20 22 21 24 23 19 17 14 14 14 12 11 13 17 17 22 19 12 15 10 9 5 10 11 16 14 13 13 10 10 8 7 8 6
17 16 21 16 12 5 8 7 3 7 6 7 38 39 40 29 23 21 22 23 19 18 16 15 13 13 12 11 14 16 17 16 17 17 11 8 9 3 5 7 11 13 12 11 10 11 11 11 7
18 22 20 5 3 7 5 8 7 2 7 8 18 27 36 34 25 32 30 17 20 17 16 18 14 13 13 12 13 14 16 15 14 11 10 11 2 14 16 9 11 11 12 11 10 9 10 14 10
15 21 18 9 18 13 12 6 9 6 6 13 22 27 30 36 28 31 21 17 19 18 18 17 16 15 14 13 13 13 14 14 14 10 12 7 15 5 14 10 10 11 11 11 11 11 9 10 11
16 17 10 19 4 5 6 9 12 5 1 4 14 29 30 38 23 25 28 24 20 19 17 15 14 12 13 14 16 15 16 15 13 14 14 13 11 10 12 7 8 10 10 9 10 12 10 11 10
17 12 17 8 1 12 5 3 8 7 4 8 8 18 25 35 29 35 25 22 20 18 20 16 16 14 14 15 15 15 15 16 15 14 14 12 11 11 10 9 9 8 10 9 10 10 11 13 11
18 16 18 18 10 8 26 6 5 8 5 8 12 15 18 34 32 36 23 35 27 25 23 20 15 15 12 12 13 14 13 13 14 15 14 13 13 13 13 12 11 10 10 9 12 9 11 12 12

GFSSGP_700_spd_150.txt.gz
Wind_Speed
9 9 5 10 4 7 19 20 11 10 17 9 16 17 14 5 6 9 14 5 6 6 8 7 9 12 13 12 11 11 11 9 8 14 14 16 18 19 20 20 19 18 17 17 17 16 15 15 15
5 10 4 4 10 8 19 17 16 16 13 7 11 9 7 14 10 15 9 5 4 5 6 8 8 11 15 13 12 11 12 11 12 17 17 19 21 20 19 19 18 17 17 17 16 16 16 17 16
3 3 10 9 9 11 21 15 16 11 6 13 12 13 5 8 9 16 9 6 6 5 6 6 9 10 13 15 16 13 10 9 13 15 18 18 19 20 19 18 17 17 17 16 16 17 17 16 15
2 6 4 7 3 18 17 12 9 12 12 6 12 13 7 5 14 15 12 17 12 8 8 6 9 12 13 17 18 18 9 9 9 19 19 19 18 19 17 17 16 16 16 17 17 17 16 16 15
9 12 10 2 17 18 16 10 9 15 15 11 4 16 18 11 9 16 14 18 16 14 11 13 12 14 15 15 20 20 12 9 15 20 19 19 19 18 17 16 16 17 18 17 17 17 17 18 17
7 6 5 12 14 11 12 9 16 11 14 14 7 21 20 8 15 12 18 19 15 13 11 14 16 14 17 17 18 20 16 17 19 20 19 19 19 17 16 16 17 17 17 17 18 19 20 20 19
12 5 13 2 15 13 12 9 10 13 13 10 9 21 18 13 9 16 11 6 14 18 15 14 19 18 19 14 18 21 22 19 15 21 19 19 18 17 17 17 17 18 17 18 20 20 20 20 20
10 11 12 11 6 12 12 13 11 12 14 16 8 19 19 15 8 9 11 8 14 17 18 17 18 19 20 20 19 21 23 27 30 22 20 20 17 16 17 19 18 17 18 20 20 20 20 20 22
9 6 7 7 12 13 13 12 11 12 13 10 6 11 18 17 15 7 9 6 16 18 21 22 19 21 23 26 27 32 34 36 25 22 21 20 21 16 18 18 18 17 19 19 20 20 23 23 23
16 8 8 3 17 15 13 13 14 14 12 12 19 18 23 20 16 4 10 5 8 18 22 25 28 24 26 28 31 34 32 26 22 21 21 14 21 18 17 17 17 18 18 18 19 21 23 23 20
7 12 3 5 21 15 10 13 7 12 14 21 23 19 22 16 13 7 7 8 2 21 24 28 33 31 28 24 30 31 29 19 21 23 25 23 20 20 18 19 17 17 18 15 15 18 22 24 19
4 13 3 7 11 14 16 10 8 4 22 15 16 20 20 15 15 14 7 6 5 9 16 19 22 28 22 25 24 22 23 18 18 20 21 17 20 22 18 23 12 13 19 11 18 19 22 11 15
3 4 17 8 8 10 6 15 16 15 16 14 16 18 18 16 13 9 1 4 5 5 8 12 12 16 17 19 10 16 12 19 15 13 13 23 20 14 19 20 23 17 8 16 20 19 20 19 17
7 3 5 17 7 11 10 15 15 13 11 14 16 17 16 17 6 8 10 5 3 5 5 7 12 11 13 13 11 16 5 13 4 13 8 17 24 18 20 23 14 22 13 19 20 19 19 10 12
5 4 4 12 12 10 6 9 15 22 11 13 14 16 16 16 15 15 12 14 10 6 8 9 9 8 10 11 11 14 17 7 5 9 10 12 16 6 10 15 18 17 17 19 17 16 18 15 6
8 8 7 8 12 11 11 19 14 20 23 14 16 22 17 19 16 17 15 13 13 12 7 5 9 7 10 8 11 8 16 12 11 10 8 8 13 13 10 7 15 18 18 22 15 11 14 10 8
11 4 4 5 11 13 16 19 19 20 20 18 17 10 15 27 21 15 16 15 16 17 10 11 12 8 8 5 12 9 7 13 11 16 10 9 13 14 6 15 15 17 16 16 7 7 11 7 10
7 11 6 7 12 13 12 14 15 25 25 16 20 13 13 16 14 13 16 16 17 18 13 14 10 6 7 10 7 7 9 7 9 8 11 10 13 13 5 5 12 15 14 9 9 10 9 6 2
11 5 5 8 9 12 8 7 15 28 26 25 26 25 17 18 16 17 15 20 19 19 16 14 14 7 9 11 11 7 5 6 6 6 6 3 11 10 7 1 3 16 18 12 12 11 8 5 1
8 15 12 13 13 8 10 6 9 24 32 20 25 22 25 22 23 18 18 16 13 12 16 14 12 13 11 13 11 11 5 8 6 4 5 8 11 7 2 4 8 12 9 8 6 4 6 3 6
11 9 7 9 9 8 10 9 10 16 29 19 29 27 34 22 32 21 19 15 20 14 15 14 11 13 14 14 14 14 7 12 7 6 6 7 8 9 9 7 6 4 5 7 9 4 3 6 2
14 9 8 6 9 14 20 6 16 21 21 30 39 40 28 34 26 24 19 18 18 20 14 17 14 14 14 14 13 14 12 6 7 7 8 6 7 8 8 9 8 10 7 4 1 3 3 4 3
16 6 11 7 12 16 20 8 10 18 20 31 35 36 38 21 17 23 25 18 18 18 18 14 14 15 14 14 15 14 15 13 12 9 9 6 8 9 12 12 11 10 10 3 4 3 5 5 6
13 16 14 16 18 21 23 16 18 25 16 13 21 33 41 28 32 35 26 24 23 20 18 12 14 14 13 12 14 16 17 12 15 10 7 10 8 9 10 13 12 11 11 8 7 8 5 5 6
16 15 21 17 18 6 1 11 5 12 14 17 21 33 36 32 29 30 26 36 28 22 23 17 14 14 13 14 17 17 17 20 11 12 11 11 9 7 6 10 11 14 13 11 11 10 11 8 7
15 18 24 5 5 13 13 4 6 6 16 14 25 29 47 31 33 26 23 23 28 27 21 20 16 15 14 13 15 17 18 18 18 11 12 17 10 11 8 12 8 11 12 12 12 13 12 10 5
16 16 18 4 14 15 8 5 3 7 11 6 13 30 42 40 32 35 37 28 21 29 21 21 19 17 16 15 14 14 15 16 16 17 18 14 10 8 9 11 9 11 12 12 10 11 9 9 7
19 14 13 8 9 11 8 5 7 4 3 10 11 25 29 39 31 30 35 26 24 21 25 20 20 19 18 18 17 15 15 16 15 12 12 11 14 16 11 5 11 12 11 10 9 10 10 12 7
13 18 15 19 7 7 4 1 15 3 4 8 14 15 23 33 38 37 29 29 27 30 21 20 22 20 19 18 17 18 17 16 15 13 13 13 12 11 13 8 10 10 9 11 10 10 11 11 8
16 19 19 19 9 20 12 4 19 5 5 11 17 14 21 26 38 41 30 41 37 32 31 31 20 19 18 18 17 15 16 16 16 16 15 15 13 12 9 10 12 11 10 11 11 9 12 12 11